| time (UTC) | temp C | wind direction | speed KPH | gust KPH | rain 1hr cm | rain 24hr cm | rain mn cm | humidity % | barometer mb |
| 20260506132002 | 31 | 0.0 | 0.0 | 0.00 | 0.00 | 0.00 | 21 | 1013.4 | |
| 20260506131957 | 31 | 0.0 | 0.0 | 0.00 | 0.00 | 0.00 | 21 | 1013.4 | |
| 20260506130502 | 34 | 0.0 | 0.0 | 0.00 | 0.00 | 0.00 | 17 | 1013.5 | |
| 20260506130457 | 34 | 0.0 | 0.0 | 0.00 | 0.00 | 0.00 | 17 | 1013.5 | |
| 20260506124957 | 33 | 0.0 | 0.0 | 0.00 | 0.00 | 0.00 | 19 | 1013.5 | |
| 20260506123502 | 32 | 0.0 | 0.0 | 0.00 | 0.00 | 0.00 | 20 | 1013.8 | |
| 20260506123457 | 32 | 0.0 | 0.0 | 0.00 | 0.00 | 0.00 | 20 | 1013.8 | |
| 20260506122002 | 31 | 0.0 | 0.0 | 0.00 | 0.00 | 0.00 | 21 | 1013.9 | |
| 20260506121957 | 31 | 0.0 | 0.0 | 0.00 | 0.00 | 0.00 | 21 | 1013.9 | |
| 20260506120502 | 32 | 0.0 | 0.0 | 0.00 | 0.00 | 0.00 | 20 | 1014.2 | |
| 20260506120457 | 32 | 0.0 | 0.0 | 0.00 | 0.00 | 0.00 | 20 | 1014.2 | |
| 20260506115005 | 32 | 0.0 | 0.0 | 0.00 | 0.00 | 0.00 | 20 | 1014.3 | |
| 20260506114957 | 32 | 0.0 | 0.0 | 0.00 | 0.00 | 0.00 | 20 | 1014.3 | |
| 20260506113502 | 33 | 0.0 | 0.0 | 0.00 | 0.00 | 0.00 | 18 | 1014.5 | |
| 20260506113457 | 33 | 0.0 | 0.0 | 0.00 | 0.00 | 0.00 | 18 | 1014.5 | |
| 20260506112002 | 33 | 0.0 | 0.0 | 0.00 | 0.00 | 0.00 | 18 | 1014.6 | |
| 20260506111957 | 33 | 0.0 | 0.0 | 0.00 | 0.00 | 0.00 | 18 | 1014.6 | |
| 20260506110502 | 34 | 0.0 | 0.0 | 0.00 | 0.00 | 0.00 | 17 | 1014.8 | |
| 20260506110457 | 34 | 0.0 | 0.0 | 0.00 | 0.00 | 0.00 | 17 | 1014.8 | |
| 20260506105002 | 32 | 0.0 | 0.0 | 0.00 | 0.00 | 0.00 | 19 | 1014.9 | |
| 20260506104957 | 32 | 0.0 | 0.0 | 0.00 | 0.00 | 0.00 | 19 | 1014.9 | |
| 20260506103457 | 32 | 0.0 | 0.0 | 0.00 | 0.00 | 0.00 | 18 | 1015.1 | |
| 20260506102002 | 33 | 0.0 | 0.0 | 0.00 | 0.00 | 0.00 | 17 | 1015.2 | |
| 20260506101957 | 33 | 0.0 | 0.0 | 0.00 | 0.00 | 0.00 | 17 | 1015.2 | |
| 20260506100502 | 30 | 0.0 | 0.0 | 0.00 | 0.00 | 0.00 | 18 | 1015.4 | |
| 20260506100457 | 30 | 0.0 | 0.0 | 0.00 | 0.00 | 0.00 | 18 | 1015.4 | |
| 20260506095002 | 30 | 0.0 | 0.0 | 0.00 | 0.00 | 0.00 | 18 | 1015.5 | |
| 20260506094957 | 30 | 0.0 | 0.0 | 0.00 | 0.00 | 0.00 | 18 | 1015.5 | |
| 20260506093502 | 29 | 0.0 | 0.0 | 0.00 | 0.00 | 0.00 | 20 | 1015.6 | |
| 20260506093457 | 29 | 0.0 | 0.0 | 0.00 | 0.00 | 0.00 | 20 | 1015.6 | |
| 20260506092002 | 30 | 0.0 | 0.0 | 0.00 | 0.00 | 0.00 | 19 | 1015.7 | |
| 20260506091957 | 30 | 0.0 | 0.0 | 0.00 | 0.00 | 0.00 | 19 | 1015.7 | |
| 20260506090502 | 30 | 0.0 | 0.0 | 0.00 | 0.00 | 0.00 | 18 | 1015.7 | |
| 20260506090457 | 30 | 0.0 | 0.0 | 0.00 | 0.00 | 0.00 | 18 | 1015.7 | |
| 20260506084957 | 31 | 0.0 | 0.0 | 0.00 | 0.00 | 0.00 | 17 | 1015.7 | |
| 20260506083502 | 31 | 0.0 | 0.0 | 0.00 | 0.00 | 0.00 | 18 | 1015.7 | |
| 20260506083457 | 31 | 0.0 | 0.0 | 0.00 | 0.00 | 0.00 | 18 | 1015.7 | |
| 20260506081957 | 30 | 0.0 | 0.0 | 0.00 | 0.00 | 0.00 | 18 | 1015.7 | |
| 20260506080457 | 29 | 0.0 | 0.0 | 0.00 | 0.00 | 0.00 | 22 | 1015.7 | |
| 20260506073502 | 27 | 0.0 | 0.0 | 0.00 | 0.00 | 0.00 | 26 | 1015.7 | |
| 20260506073458 | 27 | 0.0 | 0.0 | 0.00 | 0.00 | 0.00 | 26 | 1015.7 | |
| 20260506072012 | 26 | 0.0 | 0.0 | 0.00 | 0.00 | 0.00 | 29 | 1015.7 | |
| 20260506072002 | 26 | 0.0 | 0.0 | 0.00 | 0.00 | 0.00 | 29 | 1015.7 | |
| 20260506071958 | 26 | 0.0 | 0.0 | 0.00 | 0.00 | 0.00 | 29 | 1015.7 | |
| 20260506070502 | 24 | 0.0 | 0.0 | 0.00 | 0.00 | 0.00 | 32 | 1015.7 | |
| 20260506070458 | 24 | 0.0 | 0.0 | 0.00 | 0.00 | 0.00 | 32 | 1015.7 | |
| 20260506062013 | 21 | 0.0 | 0.0 | 0.00 | 0.00 | 0.00 | 40 | 1015.8 | |
| 20260506062002 | 21 | 0.0 | 0.0 | 0.00 | 0.00 | 0.00 | 40 | 1015.8 | |
| 20260506061958 | 21 | 0.0 | 0.0 | 0.00 | 0.00 | 0.00 | 40 | 1015.8 | |
| 20260506060503 | 20 | 0.0 | 0.0 | 0.00 | 0.00 | 0.00 | 40 | 1015.8 | |
| 20260506060458 | 20 | 0.0 | 0.0 | 0.00 | 0.00 | 0.00 | 40 | 1015.8 | |
| 20260506050503 | 17 | 0.0 | 0.0 | 0.00 | 0.00 | 0.00 | 45 | 1015.5 | |
| 20260506050458 | 17 | 0.0 | 0.0 | 0.00 | 0.00 | 0.00 | 45 | 1015.5 | |
| 20260506044958 | 17 | 0.0 | 0.0 | 0.00 | 0.00 | 0.00 | 47 | 1015.4 | |
| 20260506043503 | 15 | 0.0 | 0.0 | 0.00 | 0.00 | 0.00 | 52 | 1015.2 | |
| 20260506043458 | 15 | 0.0 | 0.0 | 0.00 | 0.00 | 0.00 | 52 | 1015.2 | |
| 20260506042003 | 15 | 0.0 | 0.0 | 0.00 | 0.00 | 0.00 | 54 | 1015.1 | |
| 20260506041958 | 15 | 0.0 | 0.0 | 0.00 | 0.00 | 0.00 | 54 | 1015.1 | |
| 20260506040503 | 14 | 0.0 | 0.0 | 0.00 | 0.00 | 0.00 | 53 | 1015.0 | |
| 20260506040458 | 14 | 0.0 | 0.0 | 0.00 | 0.00 | 0.00 | 53 | 1015.0 | |
| 20260506035003 | 13 | 0.0 | 0.0 | 0.00 | 0.00 | 0.00 | 56 | 1015.0 | |
| 20260506034958 | 13 | 0.0 | 0.0 | 0.00 | 0.00 | 0.00 | 56 | 1015.0 | |
| 20260506033503 | 12 | 0.0 | 0.0 | 0.00 | 0.00 | 0.00 | 65 | 1015.0 | |
| 20260506033458 | 12 | 0.0 | 0.0 | 0.00 | 0.00 | 0.00 | 65 | 1015.0 | |
| 20260506032013 | 12 | 0.0 | 0.0 | 0.00 | 0.00 | 0.00 | 63 | 1014.9 | |
| 20260506032003 | 12 | 0.0 | 0.0 | 0.00 | 0.00 | 0.00 | 63 | 1014.9 | |
| 20260506031958 | 12 | 0.0 | 0.0 | 0.00 | 0.00 | 0.00 | 63 | 1014.9 | |
| 20260506030503 | 14 | 0.0 | 0.0 | 0.00 | 0.00 | 0.00 | 54 | 1014.4 | |
| 20260506030458 | 14 | 0.0 | 0.0 | 0.00 | 0.00 | 0.00 | 54 | 1014.4 | |
| 20260506025003 | 14 | 0.0 | 0.0 | 0.00 | 0.00 | 0.00 | 54 | 1014.2 | |
| 20260506024958 | 14 | 0.0 | 0.0 | 0.00 | 0.00 | 0.00 | 54 | 1014.2 | |
| 20260506023503 | 13 | 0.0 | 0.0 | 0.00 | 0.00 | 0.00 | 56 | 1014.1 | |
| 20260506023458 | 13 | 0.0 | 0.0 | 0.00 | 0.00 | 0.00 | 56 | 1014.1 | |
| 20260506022003 | 13 | 0.0 | 0.0 | 0.00 | 0.00 | 0.00 | 56 | 1014.1 | |
| 20260506021958 | 13 | 0.0 | 0.0 | 0.00 | 0.00 | 0.00 | 56 | 1014.1 | |
| 20260506020503 | 13 | 0.0 | 0.0 | 0.00 | 0.00 | 0.00 | 55 | 1014.1 | |
| 20260506020458 | 13 | 0.0 | 0.0 | 0.00 | 0.00 | 0.00 | 55 | 1014.1 | |
| 20260506015003 | 13 | 0.0 | 0.0 | 0.00 | 0.00 | 0.00 | 55 | 1014.1 | |
| 20260506014958 | 13 | 0.0 | 0.0 | 0.00 | 0.00 | 0.00 | 55 | 1014.1 | |
| 20260506013458 | 13 | 0.0 | 0.0 | 0.00 | 0.00 | 0.00 | 57 | 1014.0 | |
| 20260506011958 | 13 | 0.0 | 0.0 | 0.00 | 0.00 | 0.00 | 59 | 1014.0 | |
| 20260506010458 | 13 | 0.0 | 0.0 | 0.00 | 0.00 | 0.00 | 57 | 1014.0 | |
| 20260506005003 | 13 | 0.0 | 0.0 | 0.00 | 0.00 | 0.00 | 56 | 1013.9 | |
| 20260506004958 | 13 | 0.0 | 0.0 | 0.00 | 0.00 | 0.00 | 56 | 1013.9 | |
| 20260506003503 | 14 | 0.0 | 0.0 | 0.00 | 0.00 | 0.00 | 54 | 1013.8 | |
| 20260506003458 | 14 | 0.0 | 0.0 | 0.00 | 0.00 | 0.00 | 54 | 1013.8 | |
| 20260506002003 | 14 | 0.0 | 0.0 | 0.00 | 0.00 | 0.00 | 54 | 1013.8 | |
| 20260506001958 | 14 | 0.0 | 0.0 | 0.00 | 0.00 | 0.00 | 54 | 1013.8 | |
| 20260506000458 | 13 | 0.0 | 0.0 | 0.00 | 0.00 | 0.00 | 56 | 1013.9 | |
| 20260505235003 | 13 | 0.0 | 0.0 | 0.00 | 0.00 | 0.00 | 55 | 1013.9 | |
| 20260505234958 | 13 | 0.0 | 0.0 | 0.00 | 0.00 | 0.00 | 55 | 1013.9 | |
| 20260505233503 | 14 | 0.0 | 0.0 | 0.00 | 0.00 | 0.00 | 54 | 1013.9 | |
| 20260505233458 | 14 | 0.0 | 0.0 | 0.00 | 0.00 | 0.00 | 54 | 1013.9 | |
| 20260505232003 | 15 | 0.0 | 0.0 | 0.00 | 0.00 | 0.00 | 51 | 1014.0 | |
| 20260505231958 | 15 | 0.0 | 0.0 | 0.00 | 0.00 | 0.00 | 51 | 1014.0 | |
| 20260505230503 | 15 | 0.0 | 0.0 | 0.00 | 0.00 | 0.00 | 52 | 1014.1 | |
| 20260505230458 | 15 | 0.0 | 0.0 | 0.00 | 0.00 | 0.00 | 52 | 1014.1 | |
| 20260505225003 | 15 | 0.0 | 0.0 | 0.00 | 0.00 | 0.00 | 50 | 1014.1 | |
| 20260505224958 | 15 | 0.0 | 0.0 | 0.00 | 0.00 | 0.00 | 50 | 1014.1 | |
| 20260505223503 | 15 | 0.0 | 0.0 | 0.00 | 0.00 | 0.00 | 51 | 1014.2 | |
| 20260505223459 | 15 | 0.0 | 0.0 | 0.00 | 0.00 | 0.00 | 51 | 1014.2 | |
| 20260505222003 | 16 | 0.0 | 0.0 | 0.00 | 0.00 | 0.00 | 46 | 1014.4 | |
| 20260505221958 | 16 | 0.0 | 0.0 | 0.00 | 0.00 | 0.00 | 46 | 1014.4 | |
| 20260505220503 | 16 | 0.0 | 0.0 | 0.00 | 0.00 | 0.00 | 46 | 1014.4 | |
| 20260505220459 | 16 | 0.0 | 0.0 | 0.00 | 0.00 | 0.00 | 46 | 1014.4 | |
| 20260505215003 | 16 | 0.0 | 0.0 | 0.00 | 0.00 | 0.00 | 46 | 1014.4 | |
| 20260505214959 | 16 | 0.0 | 0.0 | 0.00 | 0.00 | 0.00 | 46 | 1014.4 | |
| 20260505213503 | 16 | 0.0 | 0.0 | 0.00 | 0.00 | 0.00 | 46 | 1014.4 | |
| 20260505213459 | 16 | 0.0 | 0.0 | 0.00 | 0.00 | 0.00 | 46 | 1014.4 | |
| 20260505212004 | 17 | 0.0 | 0.0 | 0.00 | 0.00 | 0.00 | 42 | 1014.5 | |
| 20260505211959 | 17 | 0.0 | 0.0 | 0.00 | 0.00 | 0.00 | 42 | 1014.5 | |
| 20260505210503 | 17 | 0.0 | 0.0 | 0.00 | 0.00 | 0.00 | 41 | 1014.5 | |
| 20260505210459 | 17 | 0.0 | 0.0 | 0.00 | 0.00 | 0.00 | 41 | 1014.5 | |
| 20260505204959 | 17 | 0.0 | 0.0 | 0.00 | 0.00 | 0.00 | 40 | 1014.5 | |
| 20260505203459 | 17 | 0.0 | 0.0 | 0.00 | 0.00 | 0.00 | 39 | 1014.6 | |
| 20260505202004 | 18 | 0.0 | 0.0 | 0.00 | 0.00 | 0.00 | 40 | 1014.6 | |
| 20260505201959 | 18 | 0.0 | 0.0 | 0.00 | 0.00 | 0.00 | 40 | 1014.6 | |
| 20260505200504 | 18 | 0.0 | 0.0 | 0.00 | 0.00 | 0.00 | 39 | 1014.7 | |
| 20260505200459 | 18 | 0.0 | 0.0 | 0.00 | 0.00 | 0.00 | 39 | 1014.7 | |
| 20260505195004 | 18 | 0.0 | 0.0 | 0.00 | 0.00 | 0.00 | 39 | 1014.6 | |
| 20260505194959 | 18 | 0.0 | 0.0 | 0.00 | 0.00 | 0.00 | 39 | 1014.6 | |
| 20260505193504 | 18 | 0.0 | 0.0 | 0.00 | 0.00 | 0.00 | 39 | 1014.6 | |
| 20260505193459 | 18 | 0.0 | 0.0 | 0.00 | 0.00 | 0.00 | 39 | 1014.6 | |
| 20260505192004 | 18 | 0.0 | 0.0 | 0.00 | 0.00 | 0.00 | 38 | 1014.4 | |
| 20260505191959 | 18 | 0.0 | 0.0 | 0.00 | 0.00 | 0.00 | 38 | 1014.4 | |
| 20260505190504 | 18 | 0.0 | 0.0 | 0.00 | 0.00 | 0.00 | 37 | 1014.4 | |
| 20260505190459 | 18 | 0.0 | 0.0 | 0.00 | 0.00 | 0.00 | 37 | 1014.4 | |
| 20260505185004 | 19 | 0.0 | 0.0 | 0.00 | 0.00 | 0.00 | 36 | 1014.3 | |
| 20260505184959 | 19 | 0.0 | 0.0 | 0.00 | 0.00 | 0.00 | 36 | 1014.3 | |
| 20260505183507 | 20 | 0.0 | 0.0 | 0.00 | 0.00 | 0.00 | 36 | 1014.3 | |
| 20260505183459 | 20 | 0.0 | 0.0 | 0.00 | 0.00 | 0.00 | 36 | 1014.3 | |
| 20260505181959 | 20 | 0.0 | 0.0 | 0.00 | 0.00 | 0.00 | 35 | 1014.2 | |
| 20260505180459 | 20 | 0.0 | 0.0 | 0.00 | 0.00 | 0.00 | 34 | 1014.1 | |
| 20260505175004 | 20 | 0.0 | 0.0 | 0.00 | 0.00 | 0.00 | 35 | 1014.1 | |
| 20260505174959 | 20 | 0.0 | 0.0 | 0.00 | 0.00 | 0.00 | 35 | 1014.1 | |
| 20260505173504 | 21 | 0.0 | 0.0 | 0.00 | 0.00 | 0.00 | 33 | 1014.1 | |
| 20260505173459 | 21 | 0.0 | 0.0 | 0.00 | 0.00 | 0.00 | 33 | 1014.1 | |
| 20260505171959 | 22 | 0.0 | 0.0 | 0.00 | 0.00 | 0.00 | 32 | 1014.1 | |
| 20260505170504 | 24 | 0.0 | 0.0 | 0.00 | 0.00 | 0.00 | 28 | 1014.0 | |
| 20260505170459 | 24 | 0.0 | 0.0 | 0.00 | 0.00 | 0.00 | 28 | 1014.0 | |
| 20260505164959 | 26 | 0.0 | 0.0 | 0.00 | 0.00 | 0.00 | 24 | 1014.0 | |
| 20260505163504 | 27 | 0.0 | 0.0 | 0.00 | 0.00 | 0.00 | 23 | 1014.0 | |
| 20260505163459 | 27 | 0.0 | 0.0 | 0.00 | 0.00 | 0.00 | 23 | 1014.0 | |
| 20260505162007 | 27 | 0.0 | 0.0 | 0.00 | 0.00 | 0.00 | 22 | 1014.1 | |
| 20260505161959 | 27 | 0.0 | 0.0 | 0.00 | 0.00 | 0.00 | 22 | 1014.1 | |
| 20260505160504 | 28 | 0.0 | 0.0 | 0.00 | 0.00 | 0.00 | 21 | 1014.1 | |
| 20260505160459 | 28 | 0.0 | 0.0 | 0.00 | 0.00 | 0.00 | 21 | 1014.1 | |
| 20260505152004 | 28 | 0.0 | 0.0 | 0.00 | 0.00 | 0.00 | 21 | 1014.5 | |
| 20260505151959 | 28 | 0.0 | 0.0 | 0.00 | 0.00 | 0.00 | 21 | 1014.5 | |
| 20260505150504 | 28 | 0.0 | 0.0 | 0.00 | 0.00 | 0.00 | 21 | 1014.5 | |
| 20260505150459 | 28 | 0.0 | 0.0 | 0.00 | 0.00 | 0.00 | 21 | 1014.5 | |
| 20260505140504 | 31 | 0.0 | 0.0 | 0.00 | 0.00 | 0.00 | 17 | 1014.9 | |
| 20260505140459 | 31 | 0.0 | 0.0 | 0.00 | 0.00 | 0.00 | 17 | 1014.9 |